FW1331 Weather Reports


Display with metric or nautical units.
time (UTC)temp
F
wind
direction
speed
MPH
gust
MPH
rain 1hr
in
rain 24hr
in
rain mn
in
humidity
%
barometer
mb
20191015184625 84 44 2.0 5.0 0.00 0.00 0.00 29 1013.3
20191015181634 83 279 2.0 6.0 0.00 0.00 0.00 33 1013.7
20191015180050 83 325 1.0 5.0 0.00 0.00 0.00 34 1013.9
20191015174636 81 13 1.0 4.0 0.00 0.00 0.00 35 1014.1
20191015173146 79 331 0.0 4.0 0.00 0.00 0.00 37 1014.2
20191015171622 79 67 1.0 3.0 0.00 0.00 0.00 37 1014.4
20191015170118 77 67 0.0 3.0 0.00 0.00 0.00 39 1014.5
20191015164603 76 67 0.0 1.0 0.00 0.00 0.00 43 1014.5
20191015163052 75 67 2.0 4.0 0.00 0.00 0.00 45 1014.5
20191015161557 74 68 0.0 4.0 0.00 0.00 0.00 45 1014.7
20191015160111 73 67 0.0 4.0 0.00 0.00 0.00 47 1014.6
20191015154530 72 67 0.0 3.0 0.00 0.00 0.00 50 1014.6
20191015153038 70 67 0.0 2.0 0.00 0.00 0.00 52 1014.3
20191015151515 69 67 0.0 3.0 0.00 0.00 0.00 51 1014.3
20191015150059 69 67 1.0 3.0 0.00 0.00 0.00 52 1014.2
20191015144524 68 67 1.0 3.0 0.00 0.00 0.00 54 1013.9
20191015143012 66 67 0.0 4.0 0.00 0.00 0.00 55 1013.6
20191015141522 65 69 0.0 2.0 0.00 0.00 0.00 56 1013.3
20191015140014 65 69 0.0 5.0 0.00 0.00 0.00 55 1013.1
20191015134501 65 175 1.0 3.0 0.00 0.00 0.00 55 1013.2
20191015133221 65 193 0.0 0.0 0.00 0.00 0.00 55 1012.8
20191015131720 65 193 0.0 0.0 0.00 0.00 0.00 55 1012.8
20191015130202 66 193 0.0 1.0 0.00 0.00 0.00 53 1012.8
20191015124635 66 193 0.0 0.0 0.00 0.00 0.00 53 1012.7
20191015123117 66 193 0.0 1.0 0.00 0.00 0.00 53 1012.7
20191015121703 66 193 0.0 1.0 0.00 0.00 0.00 53 1012.6
20191015120219 66 193 0.0 0.0 0.00 0.00 0.00 53 1012.4
20191015114742 66 193 0.0 0.0 0.00 0.00 0.00 52 1012.4
20191015113147 66 193 0.0 1.0 0.00 0.00 0.00 52 1012.3
20191015111645 66 193 0.0 2.0 0.00 0.00 0.00 52 1012.3
20191015110150 66 193 0.0 2.0 0.00 0.00 0.00 52 1012.0
20191015104848 66 193 0.0 2.0 0.00 0.00 0.00 52 1012.0
20191015103154 66 193 2.0 4.0 0.00 0.00 0.00 52 1011.9
20191015101619 66 193 1.0 3.0 0.00 0.00 0.00 53 1011.8
20191015100212 67 194 0.0 4.0 0.00 0.00 0.00 52 1011.7
20191015094633 68 194 0.0 2.0 0.00 0.00 0.00 53 1011.7
20191015093113 69 234 1.0 3.0 0.00 0.00 0.00 53 1011.6
20191015091614 70 299 0.0 4.0 0.00 0.00 0.00 51 1011.4
20191015090159 70 244 1.0 3.0 0.00 0.00 0.00 51 1011.4
20191015084621 70 198 0.0 2.0 0.00 0.00 0.00 51 1011.3
20191015083119 70 198 0.0 5.0 0.00 0.00 0.00 51 1011.5
20191015081627 69 196 3.0 5.0 0.00 0.00 0.00 53 1011.3
20191015080031 69 174 1.0 2.0 0.00 0.00 0.00 53 1011.1
20191015074540 70 174 0.0 3.0 0.00 0.00 0.00 53 1011.2
20191015073038 70 294 1.0 2.0 0.00 0.00 0.00 53 1011.2
20191015071542 70 294 0.0 3.0 0.00 0.00 0.00 53 1011.0
20191015070041 71 294 0.0 0.0 0.00 0.00 0.00 51 1010.9
20191015064533 72 294 0.0 0.0 0.00 0.00 0.00 49 1010.8
20191015063118 73 294 0.0 0.0 0.00 0.00 0.00 49 1010.7
20191015061543 73 294 0.0 0.0 0.00 0.00 0.00 49 1010.7
20191015060031 73 294 0.0 0.0 0.00 0.00 0.00 48 1010.7
20191015054523 74 294 0.0 3.0 0.00 0.00 0.00 47 1010.6
20191015053021 75 295 1.0 3.0 0.00 0.00 0.00 45 1010.6
20191015051541 75 296 1.0 3.0 0.00 0.00 0.00 45 1010.6
20191015050046 76 296 1.0 3.0 0.00 0.00 0.00 44 1010.6
20191015044537 76 296 0.0 2.0 0.00 0.00 0.00 44 1010.4
20191015043018 77 296 0.0 2.0 0.00 0.00 0.00 43 1010.3
20191015041605 77 296 0.0 3.0 0.00 0.00 0.00 43 1010.2
20191015040035 78 296 1.0 4.0 0.00 0.00 0.00 42 1010.0
20191015034515 78 273 2.0 6.0 0.00 0.00 0.00 42 1010.0
20191015033013 79 298 2.0 5.0 0.00 0.00 0.00 40 1009.8
20191015031510 79 292 2.0 4.0 0.00 0.00 0.00 40 1009.7
20191015030008 79 283 1.0 4.0 0.00 0.00 0.00 39 1009.5
20191015024507 80 295 1.0 4.0 0.00 0.00 0.00 38 1009.3
20191015023008 81 286 2.0 4.0 0.00 0.00 0.00 36 1009.1
20191015021511 81 314 3.0 5.0 0.00 0.00 0.00 35 1009.0
20191015020013 82 297 2.0 4.0 0.00 0.00 0.00 35 1008.7
20191015014507 83 320 3.0 8.0 0.00 0.00 0.00 34 1008.4
20191015013005 83 315 2.0 6.0 0.00 0.00 0.00 33 1008.4
20191015011515 84 312 4.0 11.0 0.00 0.00 0.00 32 1008.2
20191015010002 85 302 2.0 10.0 0.00 0.00 0.00 31 1008.0
20191015004504 86 292 2.0 6.0 0.00 0.00 0.00 29 1008.0
20191015003002 87 290 0.0 2.0 0.00 0.00 0.00 29 1008.0
20191015001501 87 348 1.0 4.0 0.00 0.00 0.00 29 1007.8
20191015000209 87 5 3.0 6.0 0.00 0.00 0.00 29 1007.7
20191014234725 88 45 3.0 7.0 0.00 0.00 0.00 28 1007.7
20191014233209 89 49 3.0 7.0 0.00 0.00 0.00 27 1007.7
20191014231634 89 30 1.0 4.0 0.00 0.00 0.00 28 1007.7
20191014230414 89 33 3.0 9.0 0.00 0.00 0.00 28 1007.7
20191014224702 89 44 3.0 9.0 0.00 0.00 0.00 28 1007.6
20191014223137 89 333 4.0 10.0 0.00 0.00 0.00 27 1007.6
20191014221713 88 331 4.0 10.0 0.00 0.00 0.00 29 1007.8
20191014220238 88 207 1.0 8.0 0.00 0.00 0.00 29 1007.9
20191014214613 88 198 4.0 8.0 0.00 0.00 0.00 29 1008.0
20191014213135 88 101 2.0 7.0 0.00 0.00 0.00 29 1008.0
20191014211732 89 165 3.0 8.0 0.00 0.00 0.00 29 1008.2
20191014210146 87 90 3.0 13.0 0.00 0.00 0.00 30 1008.2
20191014204640 87 223 1.0 7.0 0.00 0.00 0.00 31 1008.4
20191014203124 87 67 2.0 8.0 0.00 0.00 0.00 31 1008.7
20191014201629 87 250 1.0 7.0 0.00 0.00 0.00 31 1008.9
20191014200347 86 157 3.0 7.0 0.00 0.00 0.00 32 1009.1
20191014194548 86 239 1.0 7.0 0.00 0.00 0.00 31 1009.3
20191014193253 85 161 1.0 5.0 0.00 0.00 0.00 33 1009.6
20191014191623 86 234 1.0 5.0 0.00 0.00 0.00 32 1009.9
20191014190148 85 216 2.0 7.0 0.00 0.00 0.00 34 1010.1